Simultaneous Nadir Overpasses (SNOs) Predictions

Prediction of SNOs between LANDSAT-8 and METOP-A Satellite Orbit:

Table of predicted SNOs for the next 14.0 days since TLE Epoch: 11/10/2014
Index Date (LANDSAT-8) Time (LANDSAT-8) Lat,Lon (LANDSAT-8) SZA (LANDSAT-8 ) Date (METOP-A) Time (METOP-A) Lat,Lon (METOP-A) SZA (METOP-A ) Distance(km) Time Diff (sec)
1 11/13/2014 03:42:59 81.11, 163.92 101.36 11/13/2014 03:42:45 81.11, 163.86 101.34 1.12 14
2 11/13/2014 04:32:25 -81.13, -28.11 78.59 11/13/2014 04:33:24 -81.13, -28.08 78.56 0.70 59
3 11/15/2014 23:17:13 81.12,-129.52 102.09 11/15/2014 23:17:09 81.12,-129.52 102.08 0.17 4
4 11/16/2014 00:06:39 -81.14, 38.46 77.86 11/16/2014 00:07:48 -81.14, 38.58 77.81 2.15 69
5 11/18/2014 18:02:01 -81.09, 128.79 77.33 11/18/2014 18:00:54 -81.09, 128.77 77.36 0.49 67
6 11/18/2014 18:51:26 81.11, -63.19 102.74 11/18/2014 18:51:33 81.11, -63.36 102.72 2.85 7
7 11/21/2014 13:36:14 -81.09,-164.73 76.71 11/21/2014 13:35:18 -81.09,-164.72 76.73 0.54 56
8 11/21/2014 14:25:39 81.11, 3.28 103.36 11/21/2014 14:25:57 81.11, 3.12 103.35 2.79 18
9 11/24/2014 09:10:26 -81.10, -98.11 76.11 11/24/2014 09:09:42 -81.09, -98.29 76.15 3.13 44




NCC Satellite Simultaneous Nadir Overpasses (SNOs) Prediction Service
